[[{"header":{"parameterUnit":"m.s-1","parameterCategory":1,"la1":30.2992,"la2":30.254,"lo1":-89.0895,"lo2":-89.0443,"dy":0.0025,"dx":0.0025,"nx":19,"ny":19,"refTime":"2026-03-08T09:00:00:Z","depth":0,"parameterNumber":2,"parameterNumberName":"U-component_of_WINDS"},"data":[0,0,0,-1.1555,-1.1556,-1.1612,-1.1612,-1.1683,-1.1684,0,0,0,0,0,0,0,0,0,0,0,-1.1536,-1.1536,-1.1555,-1.1556,-1.1612,-1.1612,-1.1683,-1.1684,0,0,0,0,0,0,0,0,0,0,0,-1.1536,-1.1536,-1.1537,-1.1556,-1.1612,-1.1612,-1.1683,-1.1641,0,0,0,0,0,0,0,0,0,0,-1.1587,-1.1567,-1.1536,-1.1537,-1.1557,-1.1612,-1.1612,-1.1639,-1.1644,-1.1657,0,-1.1666,0,-1.1676,-1.1688,-1.1688,0,0,0,-1.1558,-1.1564,-1.158,-1.1537,-1.1557,-1.1612,-1.1587,-1.1642,-1.1647,-1.1663,-1.1667,-1.167,-1.1677,-1.1689,-1.1689,-1.1753,-1.1753,0,0,-1.1555,-1.1545,-1.1577,-1.1584,-1.1573,-1.1585,-1.1589,-1.1645,-1.165,-1.1668,-1.1672,-1.1678,-1.1689,-1.169,-1.1752,-1.1753,0,0,0,-1.1545,-1.1543,-1.1559,-1.1581,-1.1591,-1.1587,-1.1591,-1.1647,-1.1653,-1.1672,-1.1679,-1.1689,-1.169,-1.1752,-1.1753,-1.1752,0,0,0,-1.1543,-1.1537,-1.1557,-1.1552,-1.1589,-1.1619,-1.1592,-1.1649,-1.1656,-1.1679,-1.1689,-1.1691,-1.1752,-1.1752,-1.1751,-1.1753,0,0,0,-1.1533,-1.1536,-1.1543,-1.1551,-1.1575,-1.1619,-1.1628,-1.1651,-1.166,-1.1688,-1.1691,-1.1752,-1.1752,-1.1751,-1.1753,-1.1767,0,0,0,-1.1521,-1.1543,-1.1543,-1.1571,-1.1574,-1.1617,-1.1627,-1.1661,-1.1685,-1.169,-1.1752,-1.1753,-1.1751,-1.1752,-1.1766,-1.1776,-1.1779,0,0,-1.1544,-1.1545,-1.1563,-1.1564,-1.1604,-1.161,-1.1651,-1.1683,-1.1696,-1.1734,-1.1735,-1.1752,-1.1753,-1.1767,-1.1802,-1.1805,0,0,0,-1.1567,-1.1579,-1.1592,-1.1614,-1.1638,-1.1659,-1.1686,-1.1698,-1.173,-1.1713,-1.1761,-1.1762,-1.1771,-1.1776,-1.1778,-1.1786,-1.1755,-1.1755,-1.1755,-1.1586,-1.1599,-1.1628,-1.1649,-1.167,-1.1697,-1.1716,-1.1737,-1.1746,-1.1757,-1.1768,-1.1788,-1.1794,-1.1796,-1.1804,-1.1775,-1.1775,-1.1775,-1.1775,-1.162,-1.164,-1.1649,-1.1681,-1.1696,-1.1723,-1.1751,-1.1756,-1.1785,-1.1781,-1.1789,-1.1783,-1.1798,-1.1806,-1.1775,-1.1775,-1.1775,-1.1775,-1.1775,-1.1634,-1.1645,-1.1659,-1.1691,-1.1716,-1.1736,-1.1763,-1.1776,-1.1789,-1.1797,-1.181,-1.181,-1.1811,-1.1802,-1.1802,-1.1802,-1.1802,-1.1802,-1.1802,-1.1642,-1.1657,-1.1677,-1.1704,-1.172,-1.1742,-1.177,-1.1787,-1.1808,-1.1816,-1.1816,-1.1823,-1.1796,-1.1789,-1.1804,-1.1803,-1.1803,-1.1803,-1.1803,-1.1672,-1.1667,-1.1697,-1.1713,-1.1746,-1.1769,-1.1785,-1.1817,-1.1833,-1.1846,-1.1852,-1.183,-1.1833,-1.1832,-1.1825,-1.1849,-1.1849,-1.1849,-1.1849,-1.1683,-1.1685,-1.1719,-1.1743,-1.1768,-1.1785,-1.1821,-1.1843,-1.1865,-1.1876,-1.1875,-1.1868,-1.1866,-1.1871,-1.1869,-1.1863,-1.1895,-1.1895,-1.1895,-1.1702,-1.1707,-1.1733,-1.1753,-1.178,-1.1804,-1.1837,-1.1866,-1.1891,-1.1897,-1.1885,-1.1883,-1.1872,-1.1868,-1.1874,-1.187,-1.186,0,0]},{"header":{"parameterUnit":"m.s-1","parameterCategory":1,"la1":30.2992,"la2":30.254,"lo1":-89.0895,"lo2":-89.0443,"dy":0.0025,"dx":0.0025,"nx":19,"ny":19,"refTime":"2026-03-08T09:00:00:Z","depth":0,"parameterNumber":3,"parameterNumberName":"V-component_of_WINDS"},"data":[0,0,0,3.058,3.0582,3.0661,3.0662,3.0765,3.0766,0,0,0,0,0,0,0,0,0,0,0,3.0554,3.0555,3.058,3.0582,3.0661,3.0662,3.0765,3.0766,0,0,0,0,0,0,0,0,0,0,0,3.0554,3.0555,3.0555,3.0582,3.0661,3.0662,3.0764,3.0705,0,0,0,0,0,0,0,0,0,0,3.0628,3.06,3.0554,3.0555,3.0583,3.0661,3.0662,3.0702,3.0709,3.0729,0,3.0742,0,3.0755,3.0772,3.0773,0,0,0,3.0585,3.0595,3.0618,3.0555,3.0583,3.0661,3.0626,3.0706,3.0713,3.0737,3.0744,3.0748,3.0757,3.0773,3.0774,3.0873,3.0873,0,0,3.058,3.0568,3.0613,3.0623,3.0607,3.0624,3.0629,3.071,3.0718,3.0744,3.075,3.0759,3.0774,3.0775,3.0873,3.0873,0,0,0,3.0566,3.0565,3.0586,3.0618,3.0632,3.0626,3.0632,3.0714,3.0722,3.0751,3.076,3.0774,3.0776,3.0872,3.0873,3.0876,0,0,0,3.0563,3.0556,3.0584,3.0577,3.0631,3.0673,3.0634,3.0717,3.0726,3.076,3.0774,3.0777,3.0872,3.0872,3.0875,3.0881,0,0,0,3.055,3.0555,3.0565,3.0576,3.0609,3.0672,3.0685,3.0719,3.0731,3.0773,3.0777,3.0872,3.0872,3.0875,3.0879,3.0904,0,0,0,3.0533,3.0567,3.0565,3.0607,3.0609,3.0673,3.0685,3.0734,3.077,3.0775,3.0872,3.0873,3.0874,3.0878,3.0903,3.0923,3.0929,0,0,3.0569,3.0571,3.0597,3.0597,3.0658,3.0662,3.0725,3.0771,3.0788,3.0845,3.0847,3.0876,3.0879,3.0904,3.0969,3.0974,0,0,0,3.0605,3.0624,3.0643,3.0675,3.071,3.0741,3.0779,3.0797,3.0845,3.0813,3.0891,3.0894,3.0909,3.0919,3.0923,3.0938,3.0876,3.0876,3.0876,3.0639,3.0658,3.0703,3.0732,3.0764,3.0802,3.0831,3.0862,3.0872,3.0891,3.0908,3.0945,3.0956,3.0959,3.0974,3.0919,3.0919,3.0919,3.0919,3.0696,3.0726,3.0739,3.0787,3.0808,3.0851,3.0891,3.0897,3.0942,3.0933,3.0947,3.0936,3.0964,3.0979,3.0919,3.0919,3.0919,3.0919,3.0919,3.0721,3.0739,3.0758,3.0809,3.0846,3.0875,3.0918,3.0935,3.0953,3.0967,3.0988,3.0989,3.0992,3.0976,3.0976,3.0976,3.0976,3.0976,3.0976,3.074,3.0762,3.0793,3.0834,3.0858,3.0893,3.0934,3.096,3.0994,3.1004,3.1004,3.1015,3.0962,3.0949,3.0978,3.0978,3.0978,3.0978,3.0977,3.0792,3.0783,3.0832,3.0856,3.0907,3.0945,3.0967,3.1018,3.1043,3.1064,3.1072,3.1029,3.1033,3.103,3.102,3.1065,3.1065,3.1065,3.1065,3.0814,3.0817,3.0872,3.091,3.095,3.0975,3.1035,3.1068,3.1103,3.112,3.1116,3.1104,3.1099,3.1106,3.1101,3.1092,3.1155,3.1155,3.1155,3.0848,3.0856,3.0901,3.0931,3.0973,3.101,3.1067,3.1114,3.1151,3.1159,3.1134,3.1131,3.1111,3.1103,3.1111,3.1102,3.1086,0,0]}]]